Regional Weather Roundup
Issued by NWS

Home | Current Version | Previous Version | Text Only | Print | Product List | Glossary Off
Versions: 1 2 3 4 5 6 7 8 9 10 11 12 13 14 15 16 17 18 19 20 21 22 23 24 25 26 27 28 29 30 31 32 33 34 35 36 37 38 39 40 41 42 43 44 45 46 47 48 49 50

000
ASUS43 KMKX 031600
RWRWI

WISCONSIN REGIONAL WEATHER ROUNDUP
NATIONAL WEATHER SERVICE MILWAUKEE/SULLIVAN WI
1100 AM CDT FRI JUL 03 2015

NOTE: "FAIR" INDICATES FEW OR NO CLOUDS BELOW 12,000 FEET WITH NO
SIGNIFICANT WEATHER AND/OR OBSTRUCTIONS TO VISIBILITY.

WIZ001-002-006>008-014>016-023>028-031700-
NORTHWEST WISCONSIN

CITY           SKY/WX    TMP DP  RH WIND       PRES   REMARKS
SUPERIOR ARPT  SUNNY     71  60  69 W10       29.88S
ASHLAND        PTSUNNY   71  57  61 W9G17     29.89F
HAYWARD        MOSUNNY   70  53  54 SW12      29.93F
SIREN          MOSUNNY   71  54  55 W8        29.93F
CUMBERLAND     PTSUNNY   68  54  60 W8        29.96S
RICE LAKE      PTSUNNY   70  54  56 W9        29.97S
CHETEK         PTSUNNY   70  59  66 W6        29.96S
LADYSMITH      MOSUNNY   71  56  59 W9        29.98S
EAU CLAIRE     NOT AVBL
MENOMONIE      MOSUNNY   72  57  60 W8        29.97S
NEW RICHMOND   MOSUNNY   71  56  59 W8        29.97S
OSCEOLA        MOSUNNY   71  58  63 W6        29.98F
$$

WIZ003>005-009-010-017-018-031700-
NORTH CENTRAL WISCONSIN

CITY           SKY/WX    TMP DP  RH WIND       PRES   REMARKS
MANITOWISH WTR PTSUNNY   66  55  65 W9        29.94S
ARBOR VITAE    MOSUNNY   71  57  62 W8        29.95S
WOODRUFF       MOSUNNY   71  57  62 W8        29.95S
RHINELANDER    SUNNY     70  56  61 SW9       29.97F
EAGLE RIVER    MOSUNNY   68  54  60 W12       29.94F
LAND O LAKES   PTSUNNY   68  55  64 W8        29.94F
PHILLIPS       MOSUNNY   68  56  64 SW7       29.95F
TOMAHAWK       MOSUNNY   69  55  61 W5        29.97S
MEDFORD        SUNNY     68  56  64 SW6       29.98F
MERRILL        MOSUNNY   69  58  68 W8        29.98S
$$

WIZ029-030-035-036-043>047-031700-
CENTRAL WISCONSIN

CITY           SKY/WX    TMP DP  RH WIND       PRES   REMARKS
WAUSAU         MOSUNNY   70  55  59 SW7       29.96F
MOSINEE        SUNNY     66  57  72 SW6       29.99F
MARSHFIELD     SUNNY     69  56  62 VRB7      29.98F
STEVENS POINT  SUNNY     66  52  59 SW5       29.99F
WAUPACA        SUNNY     71  53  52 CALM      29.99F
WAUTOMA        NOT AVBL
WISC RAPIDS    SUNNY     70  53  54 SW7       30.00S
CAMP DOUGLAS   NOT AVBL
$$

WIZ011>013-019>022-031-037>040-048>050-031700-
NORTHEAST WISCONSIN

CITY           SKY/WX    TMP DP  RH WIND       PRES   REMARKS
ANTIGO         SUNNY     66  55  66 W7        29.98F
SHAWANO        SUNNY     70  49  47 SW7       29.98F
OCONTO         SUNNY     68  54  60 W9        29.97S
STURGEON BAY   SUNNY     68  52  56 SW14      29.99S
GREEN BAY      SUNNY     70  55  59 SW6       29.98F
MANITOWOC      NOT AVBL
APPLETON       SUNNY     68  52  56 SW9       29.99F
CLINTONVILLE   SUNNY     68  50  52 W7        29.98S
OSHKOSH        SUNNY     70  52  52 VRB6      29.99S
$$

WIZ032>034-041-042-053>061-031700-
SOUTHWEST WISCONSIN

CITY           SKY/WX    TMP DP  RH WIND       PRES   REMARKS
LA CROSSE      SUNNY     71  58  63 S5        29.98S
SPARTA         SUNNY     70  53  55 CALM      29.99F
VIROQUA        SUNNY     69  53  57 NW5       30.01S
BOSCOBEL       SUNNY     71  56  58 CALM      30.00F
PRAIRIE DU CHI SUNNY     67  51  56 CALM      30.00F
PLATTEVILLE    SUNNY     67  53  60 CALM      30.01S
$$

WIZ056-057-062-063-064-067-068-031700-
SOUTH CENTRAL WISCONSIN

CITY           SKY/WX    TMP DP  RH WIND       PRES   REMARKS
REEDSBURG      SUNNY     67  56  68 CALM      29.99F
BARABOO/DELLS  SUNNY     67  52  58 SW3       30.00S
LONE ROCK      NOT AVBL
MINERAL POINT  SUNNY     70  48  46 CALM      30.02R
MADISON        MOSUNNY   69  53  56 CALM      30.00S
MIDDLETON      SUNNY     70  53  55 NW3       30.01S
WATERTOWN      SUNNY     69  56  63 W5        30.00R
MONROE         SUNNY     68  55  64 CALM      30.00S
JANESVILLE     SUNNY     70  55  60 CALM      29.98F
$$

WIZ051-052-058>065-066-070>072-031700-
SOUTHEAST WISCONSIN

CITY           SKY/WX    TMP DP  RH WIND       PRES   REMARKS
MILWAUKEE      PTSUNNY   68  55  63 VRB3      30.00S
WAUKESHA       SUNNY     70  52  52 CALM      30.00S
MILWAUKEE/TIMM SUNNY     72  48  43 CALM      30.00S
RACINE         MOSUNNY   67  54  63 E5        30.01F
BURLINGTON     MOSUNNY   68  55  62 S3        29.99F
KENOSHA        MOSUNNY   70  56  61 E3        29.99F
FOND DU LAC    SUNNY     70  54  56 SW7       30.00S
SHEBOYGAN      SUNNY     71  54  54 W6        29.99S
WEST BEND      SUNNY     70  52  52 CALM      30.00S
JUNEAU         SUNNY     67  55  65 SW5       30.02S
$$

LSZ147-162-031700-
LAKE SUPERIOR

STATION/POSITION TIME  TEMP    WIND        PRES    WAVE
                       AIR SEA DIR/SP/G            HT/PER
                 (UTC) (F)     (DEG/KT/KT) (MB)    (FT/S)
W MID LAKE BUOY  1450   48 38  220/ 14/ 16 1010.7F   2/ 4
DEVILS ISLAND    1500   63     230/ 20/ 23 1011.0F
SAXON HARBOR     1500   67     200/  6/ 12 1011.9
$$

LMZ867-665-643>646-031700-
LAKE MICHIGAN

STATION/POSITION TIME  TEMP    WIND        PRES    WAVE
                       AIR SEA DIR/SP/G            HT/PER
                 (UTC) (F)     (DEG/KT/KT) (MB)    (FT/S)
CHAMBERS ISLAND  1500   65     200/  5/ 10 1014.9S
S GREEN BAY BUOY 1500   65 68  220/ 14/ 16 1016.4F
N MID LAKE BUOY  1450   49 44  210/  8/ 10 1014.8R   0
NORTHPORT PIER   1500   66     260/  4/ 12 1014.6S
SISTER BAY       1344   66     270/ 10/ 11   N/A
ALGOMA LAKESHORE 1510          190/ 10/ 11   N/A
KEWAUNEE LAKESHO 1500   61     170/  7/  8 1014.8F
SHEBOYGAN LAKESH 1500   58     140/  5/  6 1016.1F
PORT WASHINGTON  1500   63     100/  2/  3 1016.6S
ATWATER BUOY     1500   59      60/  4/  4 1017.0F
MILWAUKEE LAKESH 1500   59      60/  5/  5   N/A
KENOSHA   LAKESH 1500   60      30/  5/  6 1015.9S
$$

TC  - TEMPERATURE IN CELSIUS
VSB - VISIBILITY IN STATUTE MILES
WCI - WIND CHILL INDEX
HX  - HEAT INDEX




USA.gov is the U.S. government's official web portal to all federal, state and local government web resources and services.